• en France
  • Liste des pays
  • À 7 jours
  • Température de l'eau
  • Carte satellitaire
  • Carte météo
  • Widgets météo
  • user-avatar
    Se connecter

    Météo par heure à Tiranё

    Ce jour, 19 Janvier, Vendredi

    Heure Température Précipitation Vent Pression Humidité
    00:00 +3°C° 0 mm 4 m/s 756 mmHg 51%
    01:00 +3°C° 0 mm 4 m/s 755 mmHg 56%
    02:00 +3°C° 0 mm 4 m/s 755 mmHg 58%
    03:00 +3°C° 0 mm 4 m/s 755 mmHg 60%
    04:00 +3°C° 0 mm 4 m/s 755 mmHg 62%
    05:00 +2°C° 0 mm 5 m/s 755 mmHg 62%
    06:00 +2°C° 0 mm 5 m/s 755 mmHg 62%
    07:00 +2°C° 0 mm 5 m/s 754 mmHg 62%
    08:00 +5°C° 0 mm 5 m/s 754 mmHg 59%
    09:00 +7°C° 0 mm 5 m/s 754 mmHg 55%
    10:00 +9°C° 0 mm 5 m/s 754 mmHg 52%
    11:00 +9°C° 0 mm 5 m/s 754 mmHg 53%
    12:00 +10°C° 0 mm 5 m/s 753 mmHg 55%
    13:00 +12°C° 0 mm 5 m/s 753 mmHg 56%
    14:00 +10°C° 0 mm 5 m/s 753 mmHg 60%
    15:00 +10°C° 0 mm 5 m/s 753 mmHg 65%
    16:00 +9°C° 0 mm 5 m/s 753 mmHg 70%
    17:00 +8°C° 0 mm 5 m/s 753 mmHg 71%
    18:00 +8°C° 0 mm 6 m/s 752 mmHg 72%
    19:00 +7°C° 0 mm 6 m/s 752 mmHg 74%
    20:00 +7°C° 0 mm 6 m/s 752 mmHg 75%
    21:00 +7°C° 0 mm 6 m/s 752 mmHg 75%
    22:00 +6°C° 0 mm 7 m/s 752 mmHg 76%
    23:00 +6°C° 0,1 mm 7 m/s 752 mmHg 77%

    Demain, 20 Janvier, Samedi

    Heure Température Précipitation Vent Pression Humidité
    00:00 +6°C° 0,1 mm 7 m/s 752 mmHg 78%
    01:00 +6°C° 0,1 mm 7 m/s 751 mmHg 79%
    02:00 +6°C° 0,2 mm 7 m/s 751 mmHg 80%
    03:00 +6°C° 0,2 mm 7 m/s 751 mmHg 81%
    04:00 +6°C° 0,2 mm 7 m/s 750 mmHg 82%
    05:00 +6°C° 0,4 mm 7 m/s 750 mmHg 83%
    06:00 +8°C° 0,4 mm 6 m/s 750 mmHg 84%
    07:00 +8°C° 0,4 mm 6 m/s 750 mmHg 84%
    08:00 +8°C° 0,8 mm 6 m/s 750 mmHg 86%
    09:00 +9°C° 0,8 mm 6 m/s 750 mmHg 87%
    10:00 +9°C° 0,8 mm 6 m/s 750 mmHg 88%
    11:00 +10°C° 1,1 mm 6 m/s 750 mmHg 87%
    12:00 +10°C° 1,1 mm 6 m/s 749 mmHg 86%
    13:00 +11°C° 1,1 mm 6 m/s 749 mmHg 85%
    14:00 +10°C° 0,9 mm 6 m/s 749 mmHg 86%
    15:00 +10°C° 0,9 mm 5 m/s 750 mmHg 88%
    16:00 +9°C° 0,9 mm 5 m/s 750 mmHg 90%
    17:00 +8°C° 0,1 mm 4 m/s 750 mmHg 91%
    18:00 +9°C° 0,1 mm 3 m/s 751 mmHg 92%
    19:00 +8°C° 0,1 mm 2 m/s 751 mmHg 93%
    20:00 +8°C° 0 mm 2 m/s 751 mmHg 92%
    21:00 +9°C° 0 mm 1 m/s 751 mmHg 92%
    22:00 +8°C° 0 mm 1 m/s 752 mmHg 92%
    23:00 +7°C° 0 mm 2 m/s 751 mmHg 91%

    Après-demain, 21 Janvier, Dimanche

    Heure Température Précipitation Vent Pression Humidité
    00:00 +7°C° 0 mm 2 m/s 751 mmHg 90%
    01:00 +7°C° 0 mm 2 m/s 751 mmHg 89%
    02:00 +7°C° 0 mm 3 m/s 750 mmHg 87%
    03:00 +7°C° 0 mm 3 m/s 750 mmHg 85%
    04:00 +7°C° 0 mm 3 m/s 749 mmHg 83%
    05:00 +6°C° 0,3 mm 4 m/s 749 mmHg 83%
    06:00 +6°C° 0,3 mm 4 m/s 749 mmHg 84%
    07:00 +6°C° 0,3 mm 4 m/s 748 mmHg 85%
    08:00 +7°C° 0,7 mm 4 m/s 748 mmHg 86%
    09:00 +7°C° 0,7 mm 4 m/s 748 mmHg 86%
    10:00 +8°C° 0,7 mm 4 m/s 747 mmHg 87%
    11:00 +8°C° 0,5 mm 4 m/s 747 mmHg 87%
    12:00 +10°C° 0,5 mm 4 m/s 747 mmHg 87%
    13:00 +10°C° 0,5 mm 4 m/s 746 mmHg 87%
    14:00 +10°C° 0,5 mm 4 m/s 746 mmHg 88%
    15:00 +10°C° 0,5 mm 4 m/s 746 mmHg 88%
    16:00 +10°C° 0,5 mm 4 m/s 747 mmHg 89%
    17:00 +8°C° 0,1 mm 4 m/s 747 mmHg 90%
    18:00 +8°C° 0,1 mm 4 m/s 748 mmHg 91%
    19:00 +8°C° 0,1 mm 3 m/s 748 mmHg 92%
    20:00 +8°C° 0 mm 3 m/s 748 mmHg 93%
    21:00 +8°C° 0 mm 3 m/s 749 mmHg 93%
    22:00 +7°C° 0 mm 2 m/s 749 mmHg 93%
    23:00 +7°C° 0 mm 2 m/s 749 mmHg 92%

    22 Janvier, Lundi

    Heure Température Précipitation Vent Pression Humidité
    00:00 +7°C° 0 mm 2 m/s 750 mmHg 92%
    01:00 +6°C° 0 mm 2 m/s 750 mmHg 92%
    02:00 +6°C° 0 mm 2 m/s 750 mmHg 91%
    03:00 +5°C° 0 mm 2 m/s 750 mmHg 89%
    04:00 +5°C° 0 mm 2 m/s 751 mmHg 88%
    05:00 +4°C° 0 mm 3 m/s 751 mmHg 87%
    06:00 +3°C° 0 mm 3 m/s 752 mmHg 85%
    07:00 +3°C° 0 mm 3 m/s 752 mmHg 83%
    08:00 +4°C° 0 mm 4 m/s 753 mmHg 72%
    09:00 +5°C° 0 mm 4 m/s 753 mmHg 62%
    10:00 +7°C° 0 mm 4 m/s 754 mmHg 51%
    11:00 +7°C° 0 mm 4 m/s 754 mmHg 46%
    12:00 +8°C° 0 mm 4 m/s 754 mmHg 42%
    13:00 +10°C° 0 mm 4 m/s 754 mmHg 38%
    14:00 +8°C° 0 mm 4 m/s 754 mmHg 43%
    15:00 +8°C° 0 mm 4 m/s 754 mmHg 47%
    16:00 +7°C° 0 mm 4 m/s 754 mmHg 52%
    17:00 +6°C° 0 mm 4 m/s 755 mmHg 54%
    18:00 +5°C° 0 mm 4 m/s 755 mmHg 56%
    19:00 +4°C° 0 mm 4 m/s 756 mmHg 58%
    20:00 +4°C° 0 mm 3 m/s 756 mmHg 58%
    21:00 +3°C° 0 mm 3 m/s 756 mmHg 59%
    22:00 +4°C° 0 mm 2 m/s 756 mmHg 59%
    23:00 +4°C° 0 mm 2 m/s 756 mmHg 59%

    23 Janvier, Mardi

    Heure Température Précipitation Vent Pression Humidité
    00:00 +4°C° 0 mm 2 m/s 756 mmHg 59%
    01:00 +3°C° 0 mm 3 m/s 756 mmHg 59%
    02:00 +5°C° 0 mm 2 m/s 756 mmHg 58%
    03:00 +5°C° 0 mm 2 m/s 756 mmHg 56%
    04:00 +5°C° 0 mm 2 m/s 756 mmHg 55%
    05:00 +5°C° 0 mm 2 m/s 756 mmHg 53%
    06:00 +6°C° 0 mm 1 m/s 756 mmHg 52%
    07:00 +6°C° 0 mm 1 m/s 756 mmHg 51%
    08:00 +7°C° 0,1 mm 1 m/s 757 mmHg 50%
    09:00 +8°C° 0,1 mm 1 m/s 757 mmHg 48%
    10:00 +8°C° 0,1 mm 2 m/s 757 mmHg 47%
    11:00 +9°C° 0 mm 2 m/s 757 mmHg 47%
    12:00 +10°C° 0 mm 2 m/s 757 mmHg 46%
    13:00 +10°C° 0 mm 3 m/s 757 mmHg 46%
    14:00 +10°C° 0 mm 3 m/s 758 mmHg 51%
    15:00 +9°C° 0 mm 3 m/s 758 mmHg 56%
    16:00 +9°C° 0 mm 3 m/s 758 mmHg 61%
    17:00 +8°C° 0 mm 3 m/s 759 mmHg 63%
    18:00 +7°C° 0 mm 3 m/s 759 mmHg 65%
    19:00 +5°C° 0 mm 3 m/s 760 mmHg 67%
    20:00 +5°C° 0 mm 3 m/s 760 mmHg 67%
    21:00 +5°C° 0 mm 3 m/s 760 mmHg 68%
    22:00 +5°C° 0 mm 3 m/s 761 mmHg 68%
    23:00 +4°C° 0 mm 4 m/s 761 mmHg 68%

    24 Janvier, Mercredi

    Heure Température Précipitation Vent Pression Humidité
    00:00 +4°C° 0 mm 4 m/s 761 mmHg 68%
    01:00 +4°C° 0 mm 4 m/s 761 mmHg 68%
    02:00 +4°C° 0 mm 4 m/s 761 mmHg 68%
    03:00 +4°C° 0 mm 4 m/s 761 mmHg 69%
    04:00 +4°C° 0 mm 4 m/s 761 mmHg 69%
    05:00 +4°C° 0 mm 3 m/s 761 mmHg 69%
    06:00 +4°C° 0 mm 3 m/s 761 mmHg 69%
    07:00 +4°C° 0 mm 3 m/s 762 mmHg 68%
    08:00 +7°C° 0 mm 2 m/s 762 mmHg 64%
    09:00 +9°C° 0 mm 2 m/s 762 mmHg 59%
    10:00 +12°C° 0 mm 2 m/s 762 mmHg 54%
    11:00 +13°C° 0 mm 2 m/s 762 mmHg 54%
    12:00 +13°C° 0 mm 3 m/s 761 mmHg 53%
    13:00 +13°C° 0 mm 3 m/s 761 mmHg 52%
    14:00 +12°C° 0 mm 3 m/s 761 mmHg 58%
    15:00 +12°C° 0 mm 3 m/s 761 mmHg 63%
    16:00 +11°C° 0 mm 3 m/s 761 mmHg 68%
    17:00 +10°C° 0 mm 3 m/s 761 mmHg 70%
    18:00 +9°C° 0 mm 3 m/s 762 mmHg 72%
    19:00 +8°C° 0 mm 3 m/s 762 mmHg 74%
    20:00 +7°C° 0 mm 3 m/s 762 mmHg 74%
    21:00 +7°C° 0 mm 3 m/s 762 mmHg 73%
    22:00 +7°C° 0 mm 2 m/s 762 mmHg 72%
    23:00 +7°C° 0 mm 2 m/s 762 mmHg 72%
    Voir plus